Weather reports worldwide

Advertisment
Glenanne, United Kingdom (3923): temperature & dewpoint: 19.03.2019 06:00:00 - 25.03.2019 06:00:00 (GMT)Glenanne, United Kingdom (3923): temperature -100cm: 19.03.2019 06:00:00 - 25.03.2019 06:00:00 (GMT)Glenanne, United Kingdom (3923): wind speed & gusts: 19.03.2019 06:00:00 - 25.03.2019 06:00:00 (GMT)Glenanne, United Kingdom (3923): wind direction: 19.03.2019 06:00:00 - 25.03.2019 06:00:00 (GMT)Glenanne, United Kingdom (3923): reduced air pressure: 19.03.2019 06:00:00 - 25.03.2019 06:00:00 (GMT)Glenanne, United Kingdom (3923): visibility: 19.03.2019 06:00:00 - 25.03.2019 06:00:00 (GMT)Glenanne, United Kingdom (3923): precipitation: 19.03.2019 06:00:00 - 25.03.2019 06:00:00 (GMT)
Date & Time tt [°C] td [°C] tt -100cm [°C] ff [km/h] ff [kn] fx [km/h] fx [kn] dd ppp [hPa] vv [km] rr [mm]
25.03.2019 06:00:00 5,9 4,0 - 16 9 - - NNW 1034,0 14 0,0
25.03.2019 05:00:00 5,4 3,7 - 16 9 - - NW 1033,1 14 0,0
25.03.2019 04:00:00 5,1 3,4 - 11 6 - - NNW 1033,1 14 0,0
25.03.2019 03:00:00 5,7 4,1 - 15 8 - - NNW 1032,8 16 0,0
25.03.2019 02:00:00 5,3 4,0 - 16 9 - - NW 1032,3 13 0,0
25.03.2019 01:00:00 5,4 3,9 - 11 6 - - NW 1032,4 14 0,0
25.03.2019 00:00:00 - - - - - - - - - - -
24.03.2019 23:00:00 - - - - - - - - - - -
24.03.2019 22:00:00 6,1 5,0 - 18 10 - - NNW 1031,3 20 0,0
24.03.2019 21:00:00 6,4 5,0 - 18 10 - - NNW 1030,9 13 0,0
24.03.2019 20:00:00 6,4 4,8 - 26 14 - - NNW 1030,0 12 0,2
24.03.2019 19:00:00 6,6 4,9 - 22 12 - - NW 1030,0 12 0,0
24.03.2019 18:00:00 7,3 4,1 - 22 12 - - NW 1029,5 15 0,0
24.03.2019 17:00:00 8,1 3,4 - 26 14 50 27 NW 1028,9 15 0,0
24.03.2019 16:00:00 9,2 4,3 - 26 14 52 28 NW 1028,9 21 0,0
24.03.2019 15:00:00 8,8 4,7 - 29 16 54 29 NW 1029,1 21 0,2
24.03.2019 14:00:00 8,6 5,3 - 26 14 50 27 NW 1029,0 21 0,2
24.03.2019 13:00:00 9,4 4,3 - 31 17 52 28 WNW 1029,3 35 0,0
24.03.2019 12:00:00 8,5 5,1 - 24 13 48 26 WNW 1029,6 24 0,0
24.03.2019 11:00:00 8,2 3,0 - 26 14 54 29 WNW 1029,7 27 0,0
24.03.2019 10:00:00 7,2 3,0 - 22 12 - - W 1030,0 35 0,0
24.03.2019 09:00:00 5,7 2,0 7,7 18 10 - - W 1030,0 35 0,0
24.03.2019 08:00:00 4,3 1,4 - 18 10 - - W 1030,3 40 0,0
24.03.2019 07:00:00 3,1 0,7 - 16 9 - - W 1030,4 45 0,0
24.03.2019 06:00:00 2,8 0,5 - 15 8 - - WSW 1030,6 40 0,0
24.03.2019 05:00:00 2,5 0,2 - 13 7 - - WSW 1031,0 40 0,0
24.03.2019 04:00:00 2,9 0,4 - 13 7 - - W 1031,3 50 0,0
24.03.2019 03:00:00 3,0 0,8 - 11 6 - - W 1031,4 35 0,0
24.03.2019 02:00:00 3,2 0,5 - 9 5 - - W 1031,7 35 0,0
24.03.2019 01:00:00 3,9 0,8 - 8 4 - - W 1032,1 35 0,0
24.03.2019 00:00:00 5,1 1,4 - 8 4 - - W 1032,7 35 0,0
23.03.2019 23:00:00 4,7 1,2 - 9 5 - - WNW 1033,0 30 0,0
23.03.2019 22:00:00 4,2 0,6 - 8 4 - - WNW 1033,2 30 0,0
23.03.2019 21:00:00 5,0 1,0 - 5 3 - - W 1033,3 30 0,0
23.03.2019 20:00:00 4,9 0,9 - 5 3 - - WSW 1033,3 35 0,0
23.03.2019 19:00:00 5,9 1,1 - 5 3 - - W 1032,9 29 0,0
23.03.2019 18:00:00 7,1 1,7 - 8 4 - - WNW 1033,1 45 0,0
23.03.2019 17:00:00 7,8 1,2 - 9 5 - - W 1033,1 35 0,0
23.03.2019 16:00:00 8,1 1,4 - 9 5 - - NW 1033,0 21 0,0
23.03.2019 15:00:00 7,6 1,6 - 13 7 - - NW 1033,4 40 0,0
23.03.2019 14:00:00 8,1 1,1 - 11 6 - - WNW 1033,6 30 0,0
23.03.2019 13:00:00 7,5 2,3 - 13 7 - - NW 1033,9 30 0,0
23.03.2019 12:00:00 7,6 1,3 - 11 6 - - NW 1033,6 25 0,0
23.03.2019 11:00:00 7,1 1,7 - 13 7 - - NW 1033,6 30 0,0
23.03.2019 10:00:00 6,3 2,4 - 11 6 - - W 1033,4 21 0,0
23.03.2019 09:00:00 4,9 1,9 7,5 11 6 - - W 1033,0 26 0,0
23.03.2019 08:00:00 3,0 0,8 - 9 5 - - W 1032,6 19 0,0
23.03.2019 07:00:00 2,4 0,3 - 9 5 - - W 1031,9 24 0,0
23.03.2019 06:00:00 1,9 -0,7 - 9 5 - - WSW 1031,4 20 0,0
23.03.2019 05:00:00 2,8 -0,6 - 8 4 - - W 1030,7 19 0,0
23.03.2019 04:00:00 3,0 -0,1 - 5 3 - - W 1030,2 21 0,0
23.03.2019 03:00:00 3,2 0,6 - 5 3 - - W 1029,9 16 0,0
23.03.2019 02:00:00 3,9 0,9 - 11 6 - - W 1029,5 19 0,0
23.03.2019 01:00:00 4,2 1,0 - 11 6 - - W 1028,8 21 0,0
23.03.2019 00:00:00 4,4 1,3 - 11 6 - - W 1028,2 19 0,0
22.03.2019 23:00:00 4,8 1,8 - 11 6 - - W 1027,6 19 0,0
22.03.2019 22:00:00 4,5 1,4 - 9 5 - - W 1027,0 23 0,0
22.03.2019 21:00:00 5,5 2,0 - 9 5 - - WNW 1026,4 22 0,0
22.03.2019 20:00:00 6,1 1,1 - 9 5 - - WNW 1025,5 23 0,0
22.03.2019 19:00:00 6,6 0,6 - 13 7 - - W 1024,3 30 0,0
22.03.2019 18:00:00 7,9 3,1 - 11 6 - - W 1023,1 22 0,0
22.03.2019 17:00:00 8,9 2,4 - 11 6 - - WNW 1022,3 27 0,0
22.03.2019 16:00:00 9,1 5,0 - 18 10 - - NW 1021,3 27 0,2
22.03.2019 15:00:00 8,3 4,3 - 18 10 46 25 WNW 1021,0 14 0,0
22.03.2019 14:00:00 8,6 6,3 - 16 9 - - W 1020,2 22 0,0
22.03.2019 13:00:00 8,6 7,3 - 21 11 - - WNW 1019,7 7 0,4
22.03.2019 12:00:00 9,3 8,5 - 24 13 - - SW 1018,8 2,8 1,6
22.03.2019 11:00:00 9,0 8,1 - 29 16 46 25 SW 1018,3 7 0,6
22.03.2019 10:00:00 8,9 7,7 - 28 15 50 27 SW 1018,1 12 0,6
22.03.2019 09:00:00 9,1 7,2 7,2 28 15 - - SW 1018,3 50 0,0
22.03.2019 08:00:00 8,6 7,6 - 24 13 - - SW 1018,7 50 0,0
22.03.2019 07:00:00 9,0 7,9 - 28 15 - - SW 1019,0 21 0,0
22.03.2019 06:00:00 9,3 8,2 - 26 14 - - SSW 1019,1 50 0,0
22.03.2019 05:00:00 9,1 7,8 - 26 14 50 27 SSW 1019,5 50 0,0
22.03.2019 04:00:00 8,8 7,9 - 29 16 55 30 SSW 1019,5 50 0,0
22.03.2019 03:00:00 8,4 7,8 - 35 19 55 30 SSW 1020,4 8 0,0
22.03.2019 02:00:00 8,6 7,7 - 34 18 54 29 SSW 1021,5 7 0,0
22.03.2019 01:00:00 9,0 7,6 - 31 17 50 27 SSW 1022,2 40 0,0
22.03.2019 00:00:00 9,3 8,0 - 26 14 - - SSW 1023,0 40 0,0
21.03.2019 23:00:00 9,7 8,2 - 24 13 - - SSW 1023,7 28 0,0
21.03.2019 22:00:00 9,4 8,2 - 21 11 - - S 1024,6 18 0,0
21.03.2019 21:00:00 9,0 8,2 - 18 10 - - S 1025,6 13 0,0
21.03.2019 20:00:00 9,0 8,3 - 15 8 - - S 1026,2 16 0,0
21.03.2019 19:00:00 9,6 8,1 - 22 12 - - S 1026,6 24 0,0
21.03.2019 18:00:00 10,5 8,1 - 21 11 - - SSW 1027,0 14 0,0
21.03.2019 17:00:00 11,2 8,5 - 21 11 - - SSW 1027,5 35 0,0
21.03.2019 16:00:00 11,5 8,5 - 16 9 - - SSW 1028,2 35 0,0
21.03.2019 15:00:00 11,7 9,2 - 13 7 - - SW 1028,8 45 0,0
21.03.2019 14:00:00 11,7 8,8 - 16 9 - - SW 1029,3 45 0,0
21.03.2019 13:00:00 12,3 9,2 - 16 9 - - SW 1029,8 45 0,0
21.03.2019 12:00:00 12,8 10,0 - 18 10 - - SW 1030,0 45 0,0
21.03.2019 11:00:00 11,6 9,4 - 21 11 - - SW 1030,1 35 0,0
21.03.2019 10:00:00 11,3 9,6 - 15 8 - - SW 1030,2 24 0,0
21.03.2019 09:00:00 10,4 9,1 7,0 13 7 - - WSW 1030,0 23 0,0
21.03.2019 08:00:00 9,8 8,9 - 15 8 - - SW 1029,7 28 0,0
21.03.2019 07:00:00 9,5 8,6 - 13 7 - - SW 1029,2 27 0,0
21.03.2019 06:00:00 9,2 8,3 - 13 7 - - SW 1028,5 50 0,0
21.03.2019 05:00:00 9,4 8,5 - 15 8 - - SW 1028,2 16 0,0
21.03.2019 04:00:00 9,5 8,4 - 15 8 - - WSW 1027,7 19 0,0
21.03.2019 03:00:00 9,8 8,8 - 16 9 - - WSW 1027,5 4,0 0,0
21.03.2019 02:00:00 10,0 8,8 - 18 10 - - WSW 1027,7 25 0,0
21.03.2019 01:00:00 9,9 8,8 - 15 8 - - SW 1027,9 15 0,0
21.03.2019 00:00:00 9,9 8,5 - 21 11 - - SW 1027,8 30 0,0
20.03.2019 23:00:00 9,5 8,3 - 18 10 - - SW 1027,7 30 0,0
20.03.2019 22:00:00 10,1 8,6 - 16 9 - - WSW 1027,6 30 0,0
20.03.2019 21:00:00 10,7 9,2 - 18 10 - - WSW 1027,4 24 0,0
20.03.2019 20:00:00 11,5 9,7 - 18 10 - - WSW 1026,9 50 0,0
20.03.2019 19:00:00 12,2 10,1 - 18 10 - - WSW 1026,8 50 0,0
20.03.2019 18:00:00 12,6 11,3 - 21 11 - - WSW 1026,2 40 0,2
20.03.2019 17:00:00 13,3 10,8 - 18 10 - - WSW 1026,0 26 0,0
20.03.2019 16:00:00 13,5 10,7 - 16 9 - - WSW 1026,0 40 0,0
20.03.2019 15:00:00 12,9 10,7 - 18 10 - - WSW 1026,5 50 0,0
20.03.2019 14:00:00 12,8 10,9 - 21 11 - - WSW 1027,0 17 0,0
20.03.2019 13:00:00 13,1 10,7 - 22 12 - - WSW 1027,2 26 0,0
20.03.2019 12:00:00 11,6 10,7 - 21 11 - - SSW 1027,3 35 0,0
20.03.2019 11:00:00 11,1 10,3 - 18 10 - - SSW 1027,4 17 0,0
20.03.2019 10:00:00 10,5 10,0 - 22 12 - - SW 1027,6 17 0,0
20.03.2019 09:00:00 8,9 8,7 7,0 21 11 - - SW 1027,5 11 0,0
20.03.2019 08:00:00 8,4 8,3 - 13 7 - - SSW 1027,6 6 0,0
20.03.2019 07:00:00 8,2 8,1 - 15 8 - - SW 1027,1 5 0,0
20.03.2019 06:00:00 8,0 7,9 - 15 8 - - SW 1026,9 6 0,0
20.03.2019 05:00:00 7,9 7,7 - 11 6 - - SSW 1026,9 1,4 0,0
20.03.2019 04:00:00 7,8 7,6 - 13 7 - - SW 1026,7 2,4 0,0
20.03.2019 03:00:00 8,0 7,7 - 11 6 - - SSW 1026,8 5 0,0
20.03.2019 02:00:00 8,7 8,1 - 16 9 - - SW 1026,7 13 0,0
20.03.2019 01:00:00 9,4 8,6 - 11 6 - - SW 1026,7 13 0,0
20.03.2019 00:00:00 9,5 8,3 - 11 6 - - WSW 1026,8 40 0,0
19.03.2019 23:00:00 9,2 8,1 - 8 4 - - SSW 1026,2 50 0,0
19.03.2019 22:00:00 9,8 8,3 - 9 5 - - W 1026,0 50 0,0
19.03.2019 21:00:00 9,9 7,9 - 8 4 - - W 1025,5 50 0,0
19.03.2019 20:00:00 9,6 8,3 - 4 2 - - W 1025,3 40 0,0
19.03.2019 19:00:00 10,7 8,6 - 8 4 - - NNW 1024,7 35 0,0
19.03.2019 18:00:00 12,3 9,5 - 9 5 - - NW 1023,9 40 0,0
19.03.2019 17:00:00 13,8 8,2 - 13 7 - - WNW 1022,9 50 0,0
19.03.2019 16:00:00 14,2 8,8 - 11 6 - - WNW 1022,8 45 0,0
19.03.2019 15:00:00 12,3 9,9 - 11 6 - - W 1022,5 45 0,0
19.03.2019 14:00:00 12,2 10,1 - 15 8 - - W 1022,1 15 0,0
19.03.2019 13:00:00 11,1 9,7 - 18 10 - - WSW 1022,0 40 0,0
19.03.2019 12:00:00 9,9 9,2 - 16 9 - - WSW 1022,3 19 0,0
19.03.2019 11:00:00 9,6 9,5 - 22 12 - - SW 1022,3 4,8 0,0
19.03.2019 10:00:00 7,5 7,3 - 11 6 - - SSW 1022,4 5 0,0
19.03.2019 09:00:00 6,6 6,3 7,0 13 7 - - SSW 1022,2 17 0,0
19.03.2019 08:00:00 6,3 6,1 - 15 8 - - SSW 1022,1 11 0,2
19.03.2019 07:00:00 6,2 5,8 - 16 9 - - SW 1022,0 3,3 0,0
19.03.2019 06:00:00 6,2 5,7 - 16 9 - - SW 1022,1 4,4 0,2

tt = temperature
td = dewpoint
tt -100cm = temperature -100cm
ff = wind speed
fx = gusts
dd = wind direction
ppp = reduced air pressure
vv = visibility
rr = precipitation

Next stations